Time,TemperatureF,DewpointF,PressureIn,WindDirection,WindDirectionDegrees,WindSpeedMPH,WindSpeedGustMPH,Humidity,HourlyPrecipIn,Conditions,Clouds,dailyrainin,SolarRadiationWatts/m^2,SoftwareType,DateUTC
2013-07-08 00:03:00,70.3,67.9,29.80,East,101,0.0,0.0,92,0.00,,SKC,0.00,0.00,VWS V14.00,2013-07-08 05:03:00,
2013-07-08 00:10:00,70.2,68.1,29.80,East,101,0.0,0.0,93,0.00,,SKC,0.00,0.00,VWS V14.00,2013-07-08 05:10:00,
2013-07-08 00:15:00,70.2,68.1,29.80,East,101,0.0,0.0,93,0.00,,SKC,0.00,0.00,VWS V14.00,2013-07-08 05:15:00,
2013-07-08 00:20:00,70.3,68.5,29.80,East,101,0.0,0.0,94,0.00,,SKC,0.00,0.00,VWS V14.00,2013-07-08 05:20:00,
2013-07-08 00:25:00,70.5,68.7,29.81,East,101,1.0,1.0,94,0.00,,SKC,0.00,0.00,VWS V14.00,2013-07-08 05:25:00,
2013-07-08 00:30:00,70.6,69.1,29.81,East,101,0.0,0.0,95,0.00,,SKC,0.00,0.00,VWS V14.00,2013-07-08 05:30:00,
2013-07-08 00:35:00,70.8,69.3,29.81,East,101,0.0,0.0,95,0.00,,SKC,0.00,0.00,VWS V14.00,2013-07-08 05:35:00,
2013-07-08 00:40:00,70.8,69.3,29.81,East,101,0.0,0.0,95,0.00,,SKC,0.00,0.00,VWS V14.00,2013-07-08 05:40:00,
2013-07-08 00:45:00,70.8,69.0,29.80,East,101,0.0,0.0,94,0.00,,SKC,0.00,0.00,VWS V14.00,2013-07-08 05:45:00,
2013-07-08 00:50:00,70.8,69.0,29.81,East,101,0.0,0.0,94,0.00,,SKC,0.00,0.00,VWS V14.00,2013-07-08 05:50:00,
2013-07-08 00:55:00,70.7,68.9,29.81,East,96,0.0,1.0,94,0.00,,SKC,0.00,0.00,VWS V14.00,2013-07-08 05:55:00,
2013-07-08 01:00:00,70.6,68.8,29.81,East,94,0.0,0.0,94,0.00,,SKC,0.00,0.00,VWS V14.00,2013-07-08 06:00:00,
2013-07-08 01:05:00,70.6,68.8,29.81,East,94,0.0,0.0,94,0.00,,SKC,0.00,0.00,VWS V14.00,2013-07-08 06:05:00,
2013-07-08 01:10:00,70.6,68.5,29.81,East,94,0.0,0.0,93,0.00,,SKC,0.00,0.00,VWS V14.00,2013-07-08 06:10:00,
2013-07-08 01:15:00,70.5,68.4,29.81,East,94,0.0,1.0,93,0.00,,SKC,0.00,0.00,VWS V14.00,2013-07-08 06:15:00,
2013-07-08 01:20:00,70.5,68.4,29.81,NNE,12,0.0,3.0,93,0.00,,SKC,0.00,0.00,VWS V14.00,2013-07-08 06:20:00,
2013-07-08 01:25:00,70.4,68.3,29.81,North,350,0.0,2.0,93,0.00,,SKC,0.00,0.00,VWS V14.00,2013-07-08 06:25:00,
2013-07-08 01:30:00,70.3,67.9,29.82,North,5,0.0,1.0,92,0.00,,SKC,0.00,0.00,VWS V14.00,2013-07-08 06:30:00,
2013-07-08 01:35:00,70.2,67.4,29.82,North,5,0.0,1.0,91,0.00,,SKC,0.00,0.00,VWS V14.00,2013-07-08 06:35:00,
2013-07-08 01:40:00,70.1,67.4,29.82,North,5,0.0,1.0,91,0.00,,SKC,0.00,0.00,VWS V14.00,2013-07-08 06:40:00,
2013-07-08 01:45:00,69.9,66.8,29.82,North,5,0.0,1.0,90,0.00,,SKC,0.00,0.00,VWS V14.00,2013-07-08 06:45:00,
2013-07-08 01:50:00,69.8,66.7,29.82,North,5,0.0,0.0,90,0.00,,SKC,0.00,0.00,VWS V14.00,2013-07-08 06:50:00,
2013-07-08 01:55:00,69.7,66.6,29.82,NE,43,0.0,0.0,90,0.00,,SKC,0.00,0.00,VWS V14.00,2013-07-08 06:55:00,
2013-07-08 02:00:00,69.6,66.2,29.82,North,9,0.0,0.0,89,0.00,,SKC,0.00,0.00,VWS V14.00,2013-07-08 07:00:00,
2013-07-08 02:05:00,69.5,66.1,29.82,North,10,0.0,1.0,89,0.00,,SKC,0.00,0.00,VWS V14.00,2013-07-08 07:05:00,
2013-07-08 02:10:00,69.4,66.0,29.82,North,10,0.0,1.0,89,0.00,,SKC,0.00,0.00,VWS V14.00,2013-07-08 07:10:00,
2013-07-08 02:15:00,69.4,66.0,29.82,NE,44,0.0,1.0,89,0.00,,SKC,0.00,0.00,VWS V14.00,2013-07-08 07:15:00,
2013-07-08 02:20:00,69.3,65.9,29.82,NE,44,0.0,0.0,89,0.00,,SKC,0.00,0.00,VWS V14.00,2013-07-08 07:20:00,
2013-07-08 02:25:00,69.2,65.8,29.82,NE,44,0.0,0.0,89,0.00,,SKC,0.00,0.00,VWS V14.00,2013-07-08 07:25:00,
2013-07-08 02:30:00,69.1,65.7,29.82,NE,44,0.0,1.0,89,0.00,,SKC,0.00,0.00,VWS V14.00,2013-07-08 07:30:00,
2013-07-08 02:35:00,69.0,65.6,29.82,NE,44,0.0,0.0,89,0.00,,SKC,0.00,0.00,VWS V14.00,2013-07-08 07:35:00,
2013-07-08 02:40:00,68.9,65.5,29.81,NE,44,0.0,0.0,89,0.00,,SKC,0.00,0.00,VWS V14.00,2013-07-08 07:40:00,
2013-07-08 02:45:00,68.8,65.4,29.82,NNE,29,0.0,0.0,89,0.00,,SKC,0.00,0.00,VWS V14.00,2013-07-08 07:45:00,
2013-07-08 02:50:00,68.8,65.4,29.82,NNE,29,0.0,1.0,89,0.00,,SKC,0.00,0.00,VWS V14.00,2013-07-08 07:50:00,
2013-07-08 02:55:00,68.7,65.3,29.82,NW,306,1.0,3.0,89,0.00,,SKC,0.00,0.00,VWS V14.00,2013-07-08 07:55:00,
2013-07-08 03:01:00,68.6,65.2,29.82,NNW,344,0.0,3.0,89,0.00,,SKC,0.00,0.00,VWS V14.00,2013-07-08 08:01:00,
2013-07-08 03:06:00,68.5,65.1,29.83,WSW,249,1.0,2.0,89,0.00,,SKC,0.00,0.00,VWS V14.00,2013-07-08 08:06:00,
2013-07-08 03:11:00,68.4,64.7,29.82,NW,315,0.0,1.0,88,0.00,,SKC,0.00,0.00,VWS V14.00,2013-07-08 08:11:00,
2013-07-08 03:16:00,68.4,64.7,29.82,NW,314,0.0,2.0,88,0.00,,SKC,0.00,0.00,VWS V14.00,2013-07-08 08:16:00,
2013-07-08 03:21:00,68.3,64.6,29.82,NW,314,1.0,1.0,88,0.00,,SKC,0.00,0.00,VWS V14.00,2013-07-08 08:21:00,
2013-07-08 03:26:00,68.2,64.5,29.82,North,5,0.0,1.0,88,0.00,,SKC,0.00,0.00,VWS V14.00,2013-07-08 08:26:00,
2013-07-08 03:31:00,68.2,64.2,29.82,WNW,296,0.0,2.0,87,0.00,,SKC,0.00,0.00,VWS V14.00,2013-07-08 08:31:00,
2013-07-08 03:36:00,68.1,64.1,29.83,ENE,77,0.0,1.0,87,0.00,,SKC,0.00,0.00,VWS V14.00,2013-07-08 08:36:00,
2013-07-08 03:41:00,68.1,64.1,29.83,NNW,329,0.0,1.0,87,0.00,,SKC,0.00,0.00,VWS V14.00,2013-07-08 08:41:00,
2013-07-08 03:46:00,68.0,64.0,29.82,WNW,300,0.0,0.0,87,0.00,,SKC,0.00,0.00,VWS V14.00,2013-07-08 08:46:00,
2013-07-08 03:51:00,67.9,63.9,29.82,WNW,300,0.0,0.0,87,0.00,,SKC,0.00,0.00,VWS V14.00,2013-07-08 08:51:00,
2013-07-08 03:56:00,67.8,63.8,29.82,WNW,300,0.0,1.0,87,0.00,,SKC,0.00,0.00,VWS V14.00,2013-07-08 08:56:00,
2013-07-08 04:01:00,67.7,63.7,29.82,WNW,300,0.0,0.0,87,0.00,,SKC,0.00,0.00,VWS V14.00,2013-07-08 09:01:00,
2013-07-08 04:06:00,67.6,63.9,29.82,WNW,300,0.0,0.0,88,0.00,,SKC,0.00,0.00,VWS V14.00,2013-07-08 09:06:00,
2013-07-08 04:11:00,67.4,63.7,29.82,WNW,300,0.0,0.0,88,0.00,,SKC,0.00,0.00,VWS V14.00,2013-07-08 09:11:00,
2013-07-08 04:16:00,67.3,63.6,29.82,WNW,300,0.0,0.0,88,0.00,,SKC,0.00,0.00,VWS V14.00,2013-07-08 09:16:00,
2013-07-08 04:21:00,67.2,63.5,29.82,WNW,300,0.0,0.0,88,0.00,,SKC,0.00,0.00,VWS V14.00,2013-07-08 09:21:00,
2013-07-08 04:26:00,67.0,63.3,29.82,WNW,300,0.0,0.0,88,0.00,,SKC,0.00,0.00,VWS V14.00,2013-07-08 09:26:00,
2013-07-08 04:31:00,66.9,63.2,29.82,WNW,300,0.0,0.0,88,0.00,,SKC,0.00,0.00,VWS V14.00,2013-07-08 09:31:00,
2013-07-08 04:36:00,66.6,63.3,29.82,WNW,300,0.0,0.0,89,0.00,,SKC,0.00,0.00,VWS V14.00,2013-07-08 09:36:00,
2013-07-08 04:41:00,66.5,63.2,29.82,WNW,300,0.0,0.0,89,0.00,,SKC,0.00,0.00,VWS V14.00,2013-07-08 09:41:00,
2013-07-08 04:46:00,66.3,63.0,29.82,WNW,300,0.0,0.0,89,0.00,,SKC,0.00,0.00,VWS V14.00,2013-07-08 09:46:00,
2013-07-08 04:51:00,66.2,63.2,29.82,WNW,300,0.0,0.0,90,0.00,,SKC,0.00,0.00,VWS V14.00,2013-07-08 09:51:00,
2013-07-08 04:56:00,66.0,63.0,29.82,WNW,300,0.0,0.0,90,0.00,,SKC,0.00,0.00,VWS V14.00,2013-07-08 09:56:00,
2013-07-08 05:01:00,65.9,63.2,29.82,WNW,300,0.0,0.0,91,0.00,,SKC,0.00,0.00,VWS V14.00,2013-07-08 10:01:00,
2013-07-08 05:06:00,65.8,63.1,29.82,WNW,300,0.0,0.0,91,0.00,,SKC,0.00,0.00,VWS V14.00,2013-07-08 10:06:00,
2013-07-08 05:11:00,65.7,63.0,29.83,WNW,300,0.0,0.0,91,0.00,,SKC,0.00,0.00,VWS V14.00,2013-07-08 10:11:00,
2013-07-08 05:16:00,65.6,63.2,29.83,WNW,300,0.0,0.0,92,0.00,,SKC,0.00,0.00,VWS V14.00,2013-07-08 10:16:00,
2013-07-08 05:21:00,65.5,63.1,29.83,SW,225,0.0,2.0,92,0.00,,SKC,0.00,0.00,VWS V14.00,2013-07-08 10:21:00,
2013-07-08 05:26:00,65.4,63.0,29.83,SW,225,0.0,1.0,92,0.00,,SKC,0.00,0.00,VWS V14.00,2013-07-08 10:26:00,
2013-07-08 05:31:00,65.3,62.9,29.83,NE,55,0.0,2.0,92,0.00,,SKC,0.00,0.00,VWS V14.00,2013-07-08 10:31:00,
2013-07-08 05:36:00,65.2,62.8,29.83,ENE,57,0.0,3.0,92,0.00,,SKC,0.00,0.00,VWS V14.00,2013-07-08 10:36:00,
2013-07-08 05:41:00,65.2,62.8,29.83,ENE,57,0.0,0.0,92,0.00,,SKC,0.00,0.00,VWS V14.00,2013-07-08 10:41:00,
2013-07-08 05:46:00,65.2,62.5,29.83,SE,140,0.0,2.0,91,0.00,,SKC,0.00,5.00,VWS V14.00,2013-07-08 10:46:00,
2013-07-08 05:51:00,65.2,62.5,29.83,ESE,123,0.0,2.0,91,0.00,,SKC,0.00,7.00,VWS V14.00,2013-07-08 10:51:00,
2013-07-08 05:56:00,65.2,62.5,29.83,SE,124,0.0,2.0,91,0.00,,SKC,0.00,9.00,VWS V14.00,2013-07-08 10:56:00,
2013-07-08 06:01:00,65.2,62.5,29.83,East,91,0.0,2.0,91,0.00,,SKC,0.00,11.00,VWS V14.00,2013-07-08 11:01:00,
2013-07-08 06:06:00,65.3,62.6,29.84,West,280,0.0,3.0,91,0.00,,SKC,0.00,12.00,VWS V14.00,2013-07-08 11:06:00,
2013-07-08 06:11:00,65.3,62.6,29.84,North,5,0.0,1.0,91,0.00,,SKC,0.00,14.00,VWS V14.00,2013-07-08 11:11:00,
2013-07-08 06:17:00,65.2,62.5,29.84,NE,56,1.0,1.0,91,0.00,,SKC,0.00,16.00,VWS V14.00,2013-07-08 11:17:00,
2013-07-08 06:22:00,65.2,62.5,29.84,WNW,293,0.0,2.0,91,0.00,,SKC,0.00,18.00,VWS V14.00,2013-07-08 11:22:00,
2013-07-08 06:27:00,65.2,62.5,29.83,ESE,111,0.0,1.0,91,0.00,,SKC,0.00,19.00,VWS V14.00,2013-07-08 11:27:00,
2013-07-08 06:32:00,65.2,62.8,29.84,East,101,0.0,1.0,92,0.00,,SKC,0.00,19.00,VWS V14.00,2013-07-08 11:32:00,
2013-07-08 06:37:00,65.3,62.9,29.83,ENE,74,0.0,4.0,92,0.00,,SKC,0.00,21.00,VWS V14.00,2013-07-08 11:37:00,
2013-07-08 06:42:00,65.4,63.0,29.84,ESE,111,1.0,2.0,92,0.00,,SKC,0.00,23.00,VWS V14.00,2013-07-08 11:42:00,
2013-07-08 06:47:00,65.5,63.1,29.84,ENE,68,0.0,2.0,92,0.00,,SKC,0.00,23.00,VWS V14.00,2013-07-08 11:47:00,
2013-07-08 06:52:00,65.6,63.2,29.83,ENE,69,0.0,1.0,92,0.00,,SKC,0.00,25.00,VWS V14.00,2013-07-08 11:52:00,
2013-07-08 06:57:00,65.9,63.5,29.83,East,101,0.0,2.0,92,0.00,,SKC,0.00,26.00,VWS V14.00,2013-07-08 11:57:00,
2013-07-08 07:02:00,66.2,63.8,29.83,East,94,0.0,2.0,92,0.00,,SKC,0.00,26.00,VWS V14.00,2013-07-08 12:02:00,
2013-07-08 07:07:00,66.7,64.3,29.83,East,84,0.0,2.0,92,0.00,,SKC,0.00,28.00,VWS V14.00,2013-07-08 12:07:00,
2013-07-08 07:12:00,67.2,64.5,29.83,East,93,0.0,4.0,91,0.00,,SKC,0.00,28.00,VWS V14.00,2013-07-08 12:12:00,
2013-07-08 07:17:00,67.7,65.0,29.83,NE,55,1.0,2.0,91,0.00,,SKC,0.00,32.00,VWS V14.00,2013-07-08 12:17:00,
2013-07-08 07:22:00,68.2,65.2,29.83,ENE,66,1.0,3.0,90,0.00,,SKC,0.00,44.00,VWS V14.00,2013-07-08 12:22:00,
2013-07-08 07:27:00,68.7,65.3,29.84,East,83,0.0,4.0,89,0.00,,SKC,0.00,77.00,VWS V14.00,2013-07-08 12:27:00,
2013-07-08 07:32:00,69.1,65.4,29.84,NNW,348,0.0,3.0,88,0.00,,SKC,0.00,128.00,VWS V14.00,2013-07-08 12:32:00,
2013-07-08 07:37:00,69.5,65.8,29.85,North,11,1.0,3.0,88,0.00,,SKC,0.00,188.00,VWS V14.00,2013-07-08 12:37:00,
2013-07-08 07:42:00,70.0,65.6,29.85,ENE,67,0.0,2.0,86,0.00,,SKC,0.00,246.00,VWS V14.00,2013-07-08 12:42:00,
2013-07-08 07:47:00,70.5,66.1,29.86,ENE,64,0.0,2.0,86,0.00,,SKC,0.00,290.00,VWS V14.00,2013-07-08 12:47:00,
2013-07-08 07:52:00,71.0,66.3,29.86,ENE,67,0.0,3.0,85,0.00,,SKC,0.00,316.00,VWS V14.00,2013-07-08 12:52:00,
2013-07-08 07:57:00,71.5,66.8,29.86,NE,44,0.0,4.0,85,0.00,,SKC,0.00,329.00,VWS V14.00,2013-07-08 12:57:00,
2013-07-08 08:02:00,72.0,66.9,29.86,ESE,115,0.0,3.0,84,0.00,,SKC,0.00,346.00,VWS V14.00,2013-07-08 13:02:00,
2013-07-08 08:07:00,72.3,66.8,29.87,ESE,112,2.0,4.0,83,0.00,,SKC,0.00,357.00,VWS V14.00,2013-07-08 13:07:00,
2013-07-08 08:12:00,72.6,67.2,29.87,East,99,1.0,3.0,83,0.00,,SKC,0.00,371.00,VWS V14.00,2013-07-08 13:12:00,
2013-07-08 08:17:00,72.7,67.2,29.87,ESE,103,1.0,5.0,83,0.00,,SKC,0.00,388.00,VWS V14.00,2013-07-08 13:17:00,
2013-07-08 08:22:00,72.5,67.1,29.87,East,95,0.0,4.0,83,0.00,,SKC,0.00,403.00,VWS V14.00,2013-07-08 13:22:00,
2013-07-08 08:27:00,72.6,67.2,29.87,East,83,2.0,4.0,83,0.00,,SKC,0.00,417.00,VWS V14.00,2013-07-08 13:27:00,
2013-07-08 08:32:00,72.5,67.1,29.87,ESE,111,4.0,6.0,83,0.00,,SKC,0.00,429.00,VWS V14.00,2013-07-08 13:32:00,
2013-07-08 08:37:00,72.3,67.2,29.87,East,92,3.0,6.0,84,0.00,,SKC,0.00,446.00,VWS V14.00,2013-07-08 13:37:00,
2013-07-08 08:42:00,72.1,67.0,29.88,East,91,0.0,6.0,84,0.00,,SKC,0.00,462.00,VWS V14.00,2013-07-08 13:42:00,
2013-07-08 08:47:00,72.1,67.3,29.88,East,84,3.0,4.0,85,0.00,,SKC,0.00,478.00,VWS V14.00,2013-07-08 13:47:00,
2013-07-08 08:53:00,72.1,67.0,29.88,East,95,4.0,8.0,84,0.00,,SKC,0.00,489.00,VWS V14.00,2013-07-08 13:53:00,
2013-07-08 08:58:00,72.0,67.2,29.88,East,94,2.0,6.0,85,0.00,,SKC,0.00,503.00,VWS V14.00,2013-07-08 13:58:00,
2013-07-08 09:03:00,72.2,67.4,29.88,ESE,107,2.0,7.0,85,0.00,,SKC,0.00,515.00,VWS V14.00,2013-07-08 14:03:00,
2013-07-08 09:08:00,72.7,68.6,29.88,ESE,103,3.0,3.0,87,0.00,,SKC,0.00,524.00,VWS V14.00,2013-07-08 14:08:00,
2013-07-08 09:13:00,73.0,67.9,29.88,ESE,117,5.0,8.0,84,0.00,,SKC,0.00,547.00,VWS V14.00,2013-07-08 14:13:00,
2013-07-08 09:18:00,73.0,68.2,29.88,ESE,105,3.0,8.0,85,0.00,,SKC,0.00,568.00,VWS V14.00,2013-07-08 14:18:00,
2013-07-08 09:23:00,73.4,69.0,29.88,NE,38,2.0,5.0,86,0.00,,SKC,0.00,599.00,VWS V14.00,2013-07-08 14:23:00,
2013-07-08 09:28:00,73.8,68.3,29.88,East,85,2.0,9.0,83,0.00,,SKC,0.00,635.00,VWS V14.00,2013-07-08 14:28:00,
2013-07-08 09:33:00,74.0,68.5,29.89,East,88,1.0,7.0,83,0.00,,SKC,0.00,626.00,VWS V14.00,2013-07-08 14:33:00,
2013-07-08 09:38:00,74.3,68.8,29.89,ESE,107,4.0,6.0,83,0.00,,SKC,0.00,675.00,VWS V14.00,2013-07-08 14:38:00,
2013-07-08 09:43:00,74.3,68.4,29.89,North,5,2.0,6.0,82,0.00,,SKC,0.00,533.00,VWS V14.00,2013-07-08 14:43:00,
2013-07-08 09:48:00,74.2,68.7,29.89,East,86,1.0,7.0,83,0.00,,SKC,0.00,485.00,VWS V14.00,2013-07-08 14:48:00,
2013-07-08 09:53:00,74.1,68.6,29.89,East,85,2.0,7.0,83,0.00,,SKC,0.00,615.00,VWS V14.00,2013-07-08 14:53:00,
2013-07-08 09:58:00,74.3,68.8,29.89,East,100,0.0,8.0,83,0.00,,SKC,0.00,617.00,VWS V14.00,2013-07-08 14:58:00,
2013-07-08 10:03:00,74.5,69.0,29.90,East,94,3.0,10.0,83,0.00,,SKC,0.00,652.00,VWS V14.00,2013-07-08 15:03:00,
2013-07-08 10:08:00,74.5,68.7,29.89,East,84,3.0,6.0,82,0.00,,SKC,0.00,656.00,VWS V14.00,2013-07-08 15:08:00,
2013-07-08 10:13:00,74.8,69.3,29.89,ENE,64,1.0,6.0,83,0.00,,SKC,0.00,555.00,VWS V14.00,2013-07-08 15:13:00,
2013-07-08 10:18:00,75.1,68.9,29.89,East,86,1.0,5.0,81,0.00,,SKC,0.00,677.00,VWS V14.00,2013-07-08 15:18:00,
2013-07-08 10:23:00,75.5,68.9,29.90,ESE,120,1.0,6.0,80,0.00,,SKC,0.00,561.00,VWS V14.00,2013-07-08 15:23:00,
2013-07-08 10:28:00,75.5,68.9,29.90,East,85,2.0,6.0,80,0.00,,SKC,0.00,420.00,VWS V14.00,2013-07-08 15:28:00,
2013-07-08 10:33:00,75.3,69.4,29.90,ESE,120,4.0,5.0,82,0.00,,SKC,0.00,482.00,VWS V14.00,2013-07-08 15:33:00,
2013-07-08 10:38:00,75.2,69.3,29.90,East,98,5.0,5.0,82,0.00,,SKC,0.00,728.00,VWS V14.00,2013-07-08 15:38:00,
2013-07-08 10:43:00,75.3,69.1,29.90,ESE,102,4.0,7.0,81,0.00,,SKC,0.00,454.00,VWS V14.00,2013-07-08 15:43:00,
2013-07-08 10:48:00,75.1,68.9,29.90,East,98,3.0,7.0,81,0.00,,SKC,0.00,554.00,VWS V14.00,2013-07-08 15:48:00,
2013-07-08 10:53:00,75.2,69.3,29.89,East,92,5.0,10.0,82,0.00,,SKC,0.00,689.00,VWS V14.00,2013-07-08 15:53:00,
2013-07-08 10:58:00,75.3,69.1,29.90,ENE,71,1.0,7.0,81,0.00,,SKC,0.00,735.00,VWS V14.00,2013-07-08 15:58:00,
2013-07-08 11:03:00,75.4,69.5,29.90,SE,125,6.0,11.0,82,0.00,,SKC,0.00,923.00,VWS V14.00,2013-07-08 16:03:00,
2013-07-08 11:08:00,75.6,69.4,29.90,ESE,111,10.0,10.0,81,0.00,,SKC,0.00,865.00,VWS V14.00,2013-07-08 16:08:00,
2013-07-08 11:13:00,75.5,68.9,29.89,ESE,107,5.0,11.0,80,0.00,,SKC,0.00,543.00,VWS V14.00,2013-07-08 16:13:00,
2013-07-08 11:18:00,75.5,69.3,29.89,ESE,118,5.0,7.0,81,0.00,,SKC,0.00,724.00,VWS V14.00,2013-07-08 16:18:00,
2013-07-08 11:23:00,75.6,69.4,29.89,SE,127,6.0,12.0,81,0.00,,SKC,0.00,717.00,VWS V14.00,2013-07-08 16:23:00,
2013-07-08 11:28:00,75.5,69.3,29.89,ESE,109,4.0,10.0,81,0.00,,SKC,0.00,777.00,VWS V14.00,2013-07-08 16:28:00,
2013-07-08 11:33:00,75.6,69.7,29.89,ENE,58,1.0,4.0,82,0.00,,SKC,0.00,874.00,VWS V14.00,2013-07-08 16:33:00,
2013-07-08 11:38:00,75.9,70.0,29.89,ESE,102,9.0,9.0,82,0.00,,SKC,0.00,891.00,VWS V14.00,2013-07-08 16:38:00,
2013-07-08 11:43:00,76.3,70.1,29.89,ESE,111,5.0,6.0,81,0.00,,SKC,0.00,740.00,VWS V14.00,2013-07-08 16:43:00,
2013-07-08 11:49:00,76.5,70.6,29.89,East,86,4.0,5.0,82,0.00,,SKC,0.00,745.00,VWS V14.00,2013-07-08 16:49:00,
2013-07-08 11:54:00,76.9,70.3,29.89,ESE,104,2.0,5.0,80,0.00,,SKC,0.00,592.00,VWS V14.00,2013-07-08 16:54:00,
2013-07-08 11:59:00,77.0,70.4,29.88,ESE,106,8.0,9.0,80,0.00,,SKC,0.00,772.00,VWS V14.00,2013-07-08 16:59:00,
2013-07-08 12:04:00,77.0,70.4,29.88,East,85,4.0,4.0,80,0.00,,SKC,0.00,584.00,VWS V14.00,2013-07-08 17:04:00,
2013-07-08 12:09:00,77.0,70.4,29.88,East,96,1.0,7.0,80,0.00,,SKC,0.00,900.00,VWS V14.00,2013-07-08 17:09:00,
2013-07-08 12:14:00,77.4,71.1,29.89,NNE,14,1.0,3.0,81,0.00,,SKC,0.00,819.00,VWS V14.00,2013-07-08 17:14:00,
2013-07-08 12:19:00,77.8,70.8,29.89,ESE,105,8.0,9.0,79,0.00,,SKC,0.00,798.00,VWS V14.00,2013-07-08 17:19:00,
2013-07-08 12:24:00,77.8,71.1,29.89,NE,50,2.0,4.0,80,0.00,,SKC,0.00,925.00,VWS V14.00,2013-07-08 17:24:00,
2013-07-08 12:29:00,78.4,71.3,29.89,SE,139,2.0,3.0,79,0.00,,SKC,0.00,923.00,VWS V14.00,2013-07-08 17:29:00,
2013-07-08 12:34:00,78.8,71.4,29.89,ESE,118,0.0,2.0,78,0.00,,SKC,0.00,926.00,VWS V14.00,2013-07-08 17:34:00,
2013-07-08 12:40:00,79.4,71.6,29.89,East,100,5.0,5.0,77,0.00,,SKC,0.00,932.00,VWS V14.00,2013-07-08 17:40:00,
2013-07-08 12:45:00,79.5,70.5,29.89,ESE,115,3.0,4.0,74,0.00,,SKC,0.00,933.00,VWS V14.00,2013-07-08 17:45:00,
2013-07-08 12:50:00,79.7,71.1,29.89,SW,225,0.0,3.0,75,0.00,,SKC,0.00,939.00,VWS V14.00,2013-07-08 17:50:00,
2013-07-08 12:55:00,80.3,72.1,29.89,East,97,2.0,4.0,76,0.00,,SKC,0.00,979.00,VWS V14.00,2013-07-08 17:55:00,
2013-07-08 13:00:00,80.8,72.9,29.88,ESE,111,4.0,4.0,77,0.00,,SKC,0.00,991.00,VWS V14.00,2013-07-08 18:00:00,
2013-07-08 13:05:00,81.2,71.7,29.88,ESE,105,1.0,3.0,73,0.00,,SKC,0.00,1092.00,VWS V14.00,2013-07-08 18:05:00,
2013-07-08 13:10:00,81.2,72.5,29.88,ESE,107,4.0,4.0,75,0.00,,SKC,0.00,1034.00,VWS V14.00,2013-07-08 18:10:00,
2013-07-08 13:15:00,81.3,71.0,29.88,SE,126,0.0,2.0,71,0.00,,SKC,0.00,780.00,VWS V14.00,2013-07-08 18:15:00,
2013-07-08 13:22:00,81.7,69.7,29.88,SE,136,1.0,3.0,67,0.00,,SKC,0.00,928.00,VWS V14.00,2013-07-08 18:22:00,
2013-07-08 13:27:00,82.4,69.9,29.88,NE,47,2.0,3.0,66,0.00,,SKC,0.00,854.00,VWS V14.00,2013-07-08 18:27:00,
2013-07-08 13:33:00,82.7,69.8,29.89,ESE,104,1.0,3.0,65,0.00,,SKC,0.00,1090.00,VWS V14.00,2013-07-08 18:33:00,
2013-07-08 13:38:00,82.8,70.7,29.88,WNW,286,1.0,3.0,67,0.00,,SKC,0.00,1090.00,VWS V14.00,2013-07-08 18:38:00,
2013-07-08 13:44:00,83.1,71.0,29.88,WNW,286,0.0,2.0,67,0.00,,SKC,0.00,320.00,VWS V14.00,2013-07-08 18:44:00,
2013-07-08 13:49:00,83.0,70.5,29.88,WNW,286,0.0,2.0,66,0.00,,SKC,0.00,320.00,VWS V14.00,2013-07-08 18:49:00,
2013-07-08 13:55:00,83.0,70.9,29.88,NNW,335,1.0,2.0,67,0.00,,SKC,0.00,1055.00,VWS V14.00,2013-07-08 18:55:00,
2013-07-08 14:00:00,83.4,71.7,29.88,NNW,335,0.0,1.0,68,0.00,,SKC,0.00,1055.00,VWS V14.00,2013-07-08 19:00:00,
2013-07-08 14:05:00,83.8,72.1,29.88,NNE,28,1.0,2.0,68,0.00,,SKC,0.00,1106.00,VWS V14.00,2013-07-08 19:05:00,
2013-07-08 14:10:00,83.9,70.4,29.88,SSE,150,1.0,1.0,64,0.00,,SKC,0.00,649.00,VWS V14.00,2013-07-08 19:10:00,
2013-07-08 14:18:00,83.8,70.3,29.87,WNW,299,1.0,3.0,64,0.00,,SKC,0.00,366.00,VWS V14.00,2013-07-08 19:18:00,
2013-07-08 14:23:00,83.7,69.3,29.87,WNW,299,0.0,1.0,62,0.00,,SKC,0.00,371.00,VWS V14.00,2013-07-08 19:23:00,
2013-07-08 14:28:00,83.6,70.1,29.87,WNW,299,0.0,1.0,64,0.00,,SKC,0.00,378.00,VWS V14.00,2013-07-08 19:28:00,
2013-07-08 14:35:00,83.5,70.5,29.87,WNW,299,0.0,0.0,65,0.00,,SKC,0.00,345.00,VWS V14.00,2013-07-08 19:35:00,
2013-07-08 14:40:00,83.5,70.5,29.87,WNW,299,0.0,0.0,65,0.00,,SKC,0.00,330.00,VWS V14.00,2013-07-08 19:40:00,
2013-07-08 14:47:00,83.5,71.8,29.87,West,273,0.0,0.0,68,0.00,,SKC,0.00,345.00,VWS V14.00,2013-07-08 19:47:00,
2013-07-08 14:52:00,83.5,70.5,29.87,West,273,0.0,2.0,65,0.00,,SKC,0.00,559.00,VWS V14.00,2013-07-08 19:52:00,
2013-07-08 14:57:00,83.4,70.4,29.87,West,273,0.0,2.0,65,0.00,,SKC,0.00,752.00,VWS V14.00,2013-07-08 19:57:00,
2013-07-08 15:02:00,83.7,71.1,29.86,West,273,2.0,2.0,66,0.00,,SKC,0.00,877.00,VWS V14.00,2013-07-08 20:02:00,
2013-07-08 15:07:00,84.1,70.2,29.86,NNW,333,1.0,2.0,63,0.00,,SKC,0.00,909.00,VWS V14.00,2013-07-08 20:07:00,
2013-07-08 15:12:00,84.4,72.2,29.86,NNW,337,0.0,5.0,67,0.00,,SKC,0.00,837.00,VWS V14.00,2013-07-08 20:12:00,
2013-07-08 15:17:00,84.7,72.1,29.86,NNW,336,1.0,3.0,66,0.00,,SKC,0.00,819.00,VWS V14.00,2013-07-08 20:17:00,
2013-07-08 15:22:00,84.8,71.7,29.86,North,350,0.0,2.0,65,0.00,,SKC,0.00,860.00,VWS V14.00,2013-07-08 20:22:00,
2013-07-08 15:28:00,85.1,70.2,29.86,NW,323,1.0,4.0,61,0.00,,SKC,0.00,849.00,VWS V14.00,2013-07-08 20:28:00,
2013-07-08 15:33:00,85.1,70.6,29.86,NW,321,1.0,4.0,62,0.00,,SKC,0.00,842.00,VWS V14.00,2013-07-08 20:33:00,
2013-07-08 15:38:00,85.2,70.2,29.86,NW,321,0.0,3.0,61,0.00,,SKC,0.00,838.00,VWS V14.00,2013-07-08 20:38:00,
2013-07-08 15:44:00,85.2,69.8,29.86,NW,321,0.0,3.0,60,0.00,,SKC,0.00,802.00,VWS V14.00,2013-07-08 20:44:00,
2013-07-08 15:49:00,85.0,69.6,29.86,NW,321,0.0,0.0,60,0.00,,SKC,0.00,802.00,VWS V14.00,2013-07-08 20:49:00,
2013-07-08 15:57:00,85.6,69.6,29.86,NE,48,1.0,2.0,59,0.00,,SKC,0.00,793.00,VWS V14.00,2013-07-08 20:57:00,
2013-07-08 16:03:00,85.6,70.1,29.85,NE,47,2.0,3.0,60,0.00,,SKC,0.00,758.00,VWS V14.00,2013-07-08 21:03:00,
2013-07-08 16:08:00,85.6,70.1,29.85,NNW,333,1.0,3.0,60,0.00,,SKC,0.00,758.00,VWS V14.00,2013-07-08 21:08:00,
2013-07-08 16:13:00,85.5,70.0,29.85,NNW,332,1.0,3.0,60,0.00,,SKC,0.00,742.00,VWS V14.00,2013-07-08 21:13:00,
2013-07-08 16:18:00,85.7,71.7,29.85,NNW,332,1.0,2.0,63,0.00,,SKC,0.00,733.00,VWS V14.00,2013-07-08 21:18:00,
2013-07-08 16:24:00,85.9,68.9,29.86,NNW,332,0.0,4.0,57,0.00,,SKC,0.00,715.00,VWS V14.00,2013-07-08 21:24:00,
2013-07-08 16:29:00,85.9,69.4,29.86,NNW,332,1.0,2.0,58,0.00,,SKC,0.00,708.00,VWS V14.00,2013-07-08 21:29:00,
2013-07-08 16:36:00,85.9,69.9,29.86,NNW,332,2.0,3.0,59,0.00,,SKC,0.00,693.00,VWS V14.00,2013-07-08 21:36:00,
2013-07-08 16:41:00,86.2,70.2,29.85,NNW,332,1.0,2.0,59,0.00,,SKC,0.00,680.00,VWS V14.00,2013-07-08 21:41:00,
2013-07-08 16:46:00,86.6,71.6,29.86,NNW,332,1.0,2.0,61,0.00,,SKC,0.00,671.00,VWS V14.00,2013-07-08 21:46:00,
2013-07-08 16:53:00,87.2,70.6,29.86,NNW,332,1.0,2.0,58,0.00,,SKC,0.00,647.00,VWS V14.00,2013-07-08 21:53:00,
2013-07-08 16:59:00,87.5,70.9,29.85,NNW,332,1.0,2.0,58,0.00,,SKC,0.00,657.00,VWS V14.00,2013-07-08 21:59:00,
2013-07-08 17:05:00,87.9,70.3,29.85,NNW,332,0.0,1.0,56,0.00,,SKC,0.00,661.00,VWS V14.00,2013-07-08 22:05:00,
2013-07-08 17:10:00,88.1,68.8,29.85,NNW,332,1.0,1.0,53,0.00,,SKC,0.00,441.00,VWS V14.00,2013-07-08 22:10:00,
2013-07-08 17:15:00,88.2,70.5,29.85,NNW,332,0.0,1.0,56,0.00,,SKC,0.00,441.00,VWS V14.00,2013-07-08 22:15:00,
2013-07-08 17:21:00,88.3,68.5,29.85,NNW,332,0.0,1.0,52,0.00,,SKC,0.00,545.00,VWS V14.00,2013-07-08 22:21:00,
2013-07-08 17:26:00,88.4,70.2,29.85,NNW,332,0.0,0.0,55,0.00,,SKC,0.00,547.00,VWS V14.00,2013-07-08 22:26:00,
2013-07-08 17:31:00,88.6,68.7,29.85,NNW,332,1.0,2.0,52,0.00,,SKC,0.00,592.00,VWS V14.00,2013-07-08 22:31:00,
2013-07-08 17:36:00,88.8,68.9,29.85,NNW,332,0.0,1.0,52,0.00,,SKC,0.00,577.00,VWS V14.00,2013-07-08 22:36:00,
2013-07-08 17:42:00,89.1,69.2,29.85,NNW,332,0.0,1.0,52,0.00,,SKC,0.00,545.00,VWS V14.00,2013-07-08 22:42:00,
2013-07-08 17:49:00,89.1,67.5,29.85,NNW,332,0.0,1.0,49,0.00,,SKC,0.00,526.00,VWS V14.00,2013-07-08 22:49:00,
2013-07-08 17:54:00,89.2,67.0,29.85,NNW,332,0.0,0.0,48,0.00,,SKC,0.00,508.00,VWS V14.00,2013-07-08 22:54:00,
2013-07-08 17:59:00,89.3,68.8,29.85,NNW,332,0.0,0.0,51,0.00,,SKC,0.00,156.00,VWS V14.00,2013-07-08 22:59:00,
2013-07-08 18:05:00,89.2,69.3,29.85,NNW,332,0.0,1.0,52,0.00,,SKC,0.00,357.00,VWS V14.00,2013-07-08 23:05:00,
2013-07-08 18:10:00,89.0,68.5,29.85,East,101,0.0,1.0,51,0.00,,SKC,0.00,417.00,VWS V14.00,2013-07-08 23:10:00,
2013-07-08 18:17:00,88.6,69.3,29.84,East,101,0.0,2.0,53,0.00,,SKC,0.00,415.00,VWS V14.00,2013-07-08 23:17:00,
2013-07-08 18:22:00,88.2,68.9,29.84,East,101,0.0,1.0,53,0.00,,SKC,0.00,327.00,VWS V14.00,2013-07-08 23:22:00,
2013-07-08 18:27:00,87.9,68.1,29.84,East,101,0.0,2.0,52,0.00,,SKC,0.00,114.00,VWS V14.00,2013-07-08 23:27:00,
2013-07-08 18:32:00,87.6,68.4,29.84,East,101,0.0,1.0,53,0.00,,SKC,0.00,86.00,VWS V14.00,2013-07-08 23:32:00,
2013-07-08 18:37:00,87.2,68.5,29.84,East,101,0.0,1.0,54,0.00,,SKC,0.00,84.00,VWS V14.00,2013-07-08 23:37:00,
2013-07-08 18:43:00,86.5,68.4,29.84,East,101,0.0,1.0,55,0.00,,SKC,0.00,93.00,VWS V14.00,2013-07-08 23:43:00,
2013-07-08 18:48:00,85.9,69.9,29.84,East,101,0.0,0.0,59,0.00,,SKC,0.00,104.00,VWS V14.00,2013-07-08 23:48:00,
2013-07-08 18:53:00,84.8,70.3,29.84,East,101,0.0,1.0,62,0.00,,SKC,0.00,118.00,VWS V14.00,2013-07-08 23:53:00,
2013-07-08 18:58:00,83.8,68.9,29.84,East,99,0.0,2.0,61,0.00,,SKC,0.00,111.00,VWS V14.00,2013-07-08 23:58:00,
2013-07-08 19:03:00,82.9,68.1,29.84,East,99,1.0,1.0,61,0.00,,SKC,0.00,104.00,VWS V14.00,2013-07-09 00:03:00,
2013-07-08 19:11:00,82.0,68.6,29.83,East,99,0.0,0.0,64,0.00,,SKC,0.00,95.00,VWS V14.00,2013-07-09 00:11:00,
2013-07-08 19:16:00,81.5,67.7,29.83,East,99,0.0,2.0,63,0.00,,SKC,0.00,90.00,VWS V14.00,2013-07-09 00:16:00,
2013-07-08 19:21:00,81.1,66.4,29.83,East,99,0.0,1.0,61,0.00,,SKC,0.00,90.00,VWS V14.00,2013-07-09 00:21:00,
2013-07-08 19:26:00,80.9,66.2,29.83,East,99,0.0,1.0,61,0.00,,SKC,0.00,93.00,VWS V14.00,2013-07-09 00:26:00,
2013-07-08 19:31:00,80.5,68.1,29.83,East,99,0.0,1.0,66,0.00,,SKC,0.00,142.00,VWS V14.00,2013-07-09 00:31:00,
2013-07-08 19:37:00,80.2,68.7,29.83,East,99,1.0,2.0,68,0.00,,SKC,0.00,225.00,VWS V14.00,2013-07-09 00:37:00,
2013-07-08 19:42:00,80.1,69.0,29.82,East,99,1.0,3.0,69,0.00,,SKC,0.00,218.00,VWS V14.00,2013-07-09 00:42:00,
2013-07-08 19:48:00,80.3,69.2,29.82,East,99,0.0,2.0,69,0.00,,SKC,0.00,172.00,VWS V14.00,2013-07-09 00:48:00,
2013-07-08 19:53:00,80.5,69.4,29.82,East,98,1.0,2.0,69,0.00,,SKC,0.00,188.00,VWS V14.00,2013-07-09 00:53:00,
2013-07-08 19:59:00,80.8,69.7,29.82,East,98,0.0,1.0,69,0.00,,SKC,0.00,137.00,VWS V14.00,2013-07-09 00:59:00,
2013-07-08 20:05:00,81.0,69.4,29.82,East,98,1.0,2.0,68,0.00,,SKC,0.00,56.00,VWS V14.00,2013-07-09 01:05:00,
2013-07-08 20:10:00,81.0,69.0,29.82,East,98,0.0,1.0,67,0.00,,SKC,0.00,53.00,VWS V14.00,2013-07-09 01:10:00,
2013-07-08 20:16:00,81.0,69.4,29.82,East,98,0.0,1.0,68,0.00,,SKC,0.00,60.00,VWS V14.00,2013-07-09 01:16:00,
2013-07-08 20:21:00,80.7,69.6,29.82,East,87,1.0,2.0,69,0.00,,SKC,0.00,72.00,VWS V14.00,2013-07-09 01:21:00,
2013-07-08 20:26:00,80.3,69.6,29.82,East,87,0.0,1.0,70,0.00,,SKC,0.00,46.00,VWS V14.00,2013-07-09 01:26:00,
2013-07-08 20:32:00,80.1,69.9,29.82,East,87,0.0,2.0,71,0.00,,SKC,0.00,37.00,VWS V14.00,2013-07-09 01:32:00,
2013-07-08 20:37:00,79.8,70.0,29.82,East,87,0.0,2.0,72,0.00,,SKC,0.00,33.00,VWS V14.00,2013-07-09 01:37:00,
2013-07-08 20:42:00,79.4,70.0,29.82,East,87,0.0,1.0,73,0.00,,SKC,0.00,30.00,VWS V14.00,2013-07-09 01:42:00,
2013-07-08 20:48:00,79.0,70.0,29.81,ESE,107,2.0,2.0,74,0.00,,SKC,0.00,25.00,VWS V14.00,2013-07-09 01:48:00,
2013-07-08 20:53:00,78.6,70.4,29.82,ESE,107,0.0,2.0,76,0.00,,SKC,0.00,19.00,VWS V14.00,2013-07-09 01:53:00,
2013-07-08 20:58:00,78.4,70.2,29.82,ESE,107,2.0,2.0,76,0.00,,SKC,0.00,14.00,VWS V14.00,2013-07-09 01:58:00,
2013-07-08 21:03:00,78.1,69.9,29.82,ESE,106,1.0,2.0,76,0.00,,SKC,0.00,11.00,VWS V14.00,2013-07-09 02:03:00,
2013-07-08 21:08:00,77.9,69.3,29.82,ESE,106,0.0,2.0,75,0.00,,SKC,0.00,7.00,VWS V14.00,2013-07-09 02:08:00,
2013-07-08 21:13:00,77.8,69.2,29.81,East,84,2.0,2.0,75,0.00,,SKC,0.00,0.00,VWS V14.00,2013-07-09 02:13:00,
2013-07-08 21:18:00,77.6,69.1,29.81,East,84,0.0,2.0,75,0.00,,SKC,0.00,0.00,VWS V14.00,2013-07-09 02:18:00,
2013-07-08 21:23:00,77.5,68.6,29.82,East,84,0.0,2.0,74,0.00,,SKC,0.00,0.00,VWS V14.00,2013-07-09 02:23:00,
2013-07-08 21:28:00,77.4,68.5,29.82,ENE,72,0.0,2.0,74,0.00,,SKC,0.00,0.00,VWS V14.00,2013-07-09 02:28:00,
2013-07-08 21:35:00,77.1,68.2,29.82,ENE,72,0.0,2.0,74,0.00,,SKC,0.00,0.00,VWS V14.00,2013-07-09 02:35:00,
2013-07-08 21:40:00,77.0,68.1,29.82,ENE,73,1.0,1.0,74,0.00,,SKC,0.00,0.00,VWS V14.00,2013-07-09 02:40:00,
2013-07-08 21:45:00,77.0,68.1,29.82,ENE,73,1.0,1.0,74,0.00,,SKC,0.00,0.00,VWS V14.00,2013-07-09 02:45:00,
2013-07-08 21:50:00,76.6,67.7,29.82,ENE,78,0.0,1.0,74,0.00,,SKC,0.00,0.00,VWS V14.00,2013-07-09 02:50:00,
2013-07-08 21:56:00,76.4,67.9,29.82,ENE,78,0.0,1.0,75,0.00,,SKC,0.00,0.00,VWS V14.00,2013-07-09 02:56:00,
2013-07-08 22:01:00,76.2,67.7,29.83,ENE,78,0.0,2.0,75,0.00,,SKC,0.00,0.00,VWS V14.00,2013-07-09 03:01:00,
2013-07-08 22:08:00,75.9,67.4,29.83,ESE,115,1.0,3.0,75,0.00,,SKC,0.00,0.00,VWS V14.00,2013-07-09 03:08:00,
2013-07-08 22:14:00,75.7,67.2,29.83,ESE,115,2.0,4.0,75,0.00,,SKC,0.00,0.00,VWS V14.00,2013-07-09 03:14:00,
2013-07-08 22:20:00,75.6,67.5,29.84,ESE,115,2.0,2.0,76,0.00,,SKC,0.00,0.00,VWS V14.00,2013-07-09 03:20:00,
2013-07-08 22:27:00,75.4,67.7,29.84,ESE,115,1.0,3.0,77,0.00,,SKC,0.00,0.00,VWS V14.00,2013-07-09 03:27:00,
2013-07-08 22:34:00,75.2,67.5,29.84,ESE,113,2.0,5.0,77,0.00,,SKC,0.00,0.00,VWS V14.00,2013-07-09 03:34:00,
2013-07-08 22:39:00,75.0,67.7,29.84,ESE,111,4.0,4.0,78,0.00,,SKC,0.00,0.00,VWS V14.00,2013-07-09 03:39:00,
2013-07-08 22:44:00,74.9,67.6,29.84,ESE,112,0.0,6.0,78,0.00,,SKC,0.00,0.00,VWS V14.00,2013-07-09 03:44:00,
2013-07-08 22:50:00,74.8,67.9,29.84,ESE,103,3.0,3.0,79,0.00,,SKC,0.00,0.00,VWS V14.00,2013-07-09 03:50:00,
2013-07-08 22:57:00,74.7,67.8,29.84,ESE,103,1.0,3.0,79,0.00,,SKC,0.00,0.00,VWS V14.00,2013-07-09 03:57:00,
2013-07-08 23:01:00,74.6,68.0,29.84,ESE,113,3.0,4.0,80,0.00,,SKC,0.00,0.00,VWS V14.00,2013-07-09 04:01:00,
2013-07-08 23:03:00,74.6,68.0,29.84,East,90,2.0,4.0,80,0.00,,SKC,0.00,0.00,VWS V14.00,2013-07-09 04:03:00,
2013-07-08 23:08:00,74.6,68.0,29.84,ESE,108,2.0,5.0,80,0.00,,SKC,0.00,0.00,VWS V14.00,2013-07-09 04:08:00,
2013-07-08 23:13:00,74.5,67.9,29.84,ESE,105,2.0,4.0,80,0.00,,SKC,0.00,0.00,VWS V14.00,2013-07-09 04:13:00,
2013-07-08 23:16:00,74.5,67.9,29.84,East,99,2.0,4.0,80,0.00,,SKC,0.00,0.00,VWS V14.00,2013-07-09 04:16:00,
2013-07-08 23:21:00,74.5,67.9,29.84,East,101,2.0,6.0,80,0.00,,SKC,0.00,0.00,VWS V14.00,2013-07-09 04:21:00,
2013-07-08 23:26:00,74.5,68.3,29.84,East,83,1.0,3.0,81,0.00,,SKC,0.00,0.00,VWS V14.00,2013-07-09 04:26:00,
2013-07-08 23:32:00,74.4,68.2,29.84,ESE,114,3.0,4.0,81,0.00,,SKC,0.00,0.00,VWS V14.00,2013-07-09 04:32:00,
2013-07-08 23:37:00,74.4,68.6,29.84,East,88,1.0,3.0,82,0.00,,SKC,0.00,0.00,VWS V14.00,2013-07-09 04:37:00,
2013-07-08 23:42:00,74.2,68.4,29.84,East,95,0.0,3.0,82,0.00,,SKC,0.00,0.00,VWS V14.00,2013-07-09 04:42:00,
2013-07-08 23:47:00,74.1,68.6,29.83,East,101,3.0,4.0,83,0.00,,SKC,0.00,0.00,VWS V14.00,2013-07-09 04:47:00,
2013-07-08 23:52:00,74.0,68.5,29.83,ESE,105,2.0,4.0,83,0.00,,SKC,0.00,0.00,VWS V14.00,2013-07-09 04:52:00,
2013-07-08 23:57:00,73.9,68.8,29.83,ESE,103,3.0,3.0,84,0.00,,SKC,0.00,0.00,VWS V14.00,2013-07-09 04:57:00,